FLOCK 4V-18 (46597 NORAD) Tracking and Keplerian Element Data

This shows tracking and keplerian element data for the satellite.

Feedback or suggestion? Click here.




ElementValue
Catalog46597
NameFLOCK 4V-18
Epoch Orbit848
Epoch Day336.44118235
Epoch Year2020
RAAN47.9439
Inclination97.4666
Eccentricity0.0006223
Argument of Perigee287.519
Mean Anonmoly72.5362
Mean Motion15.14947132
Decay Rate1.665E-05
L11 46597U 20061BG 20336.44118235 .00001665 00000-0 92807-4 0 9990
L22 46597 97.4666 47.9439 0006223 287.5190 72.5362 15.14947132 8484

Live tracking and technical data element details for FLOCK 4V-18 (NORAD 46597). FLOCK 4V-18 can be tracked NOW for your location showing map with azimuth and elevation plus other details from your city location.

Track the satellite on the map from your city or location and see movement details for azimuth, elevation, latitude, longitude, range, height, and movement on the map or in text.







IsCatalogInMostPopularTable: catalog: 46597, numindb: 16
Update: records affected: 1



GetName: 46597 FLOCK 4V-18

Hit Count: updated at: Wed, 02 Dec 2020 19:09:11 GMT